Location: Hurstbourne Priors
(51.2000°N, 1.3667°W)
Time: 05:34:19
(UTC+00:00)

Tiros 1 - All Passes

Search period start: 14 April 2021 00:00
Search period end: 24 April 2021 00:00
Orbit: 630 x 663 km, 48.4° (Epoch: 13 April)

Date Brightness Start Highest point End Pass type
(mag) Time Alt. Az. Time Alt. Az. Time Alt. Az.
14 Apr - 10:38:35 10° SSE 10:40:33 13° SE 10:42:29 10° ESE daylight
14 Apr - 12:17:33 10° SW 12:21:48 37° SSE 12:26:03 10° E daylight
14 Apr - 13:59:03 10° WSW 14:03:37 62° S 14:08:11 10° E daylight
14 Apr - 15:41:05 10° W 15:45:32 49° SSW 15:50:00 10° ESE daylight
14 Apr - 17:23:39 10° W 17:27:03 20° SW 17:30:26 10° SSE daylight
15 Apr - 11:02:25 10° SSW 11:06:00 22° SSE 11:09:35 10° E daylight
15 Apr - 12:43:05 10° WSW 12:47:34 51° SSE 12:52:03 10° E daylight
15 Apr - 14:24:56 10° W 14:29:29 61° S 14:34:04 10° ESE daylight
15 Apr - 16:07:06 10° W 16:11:17 34° SSW 16:15:28 10° SE daylight
15 Apr - 17:51:16 10° WSW 17:52:29 11° SW 17:53:41 10° SSW daylight
16 Apr - 09:48:48 10° SSE 09:50:24 12° SE 09:51:59 10° ESE daylight
16 Apr - 11:27:24 10° SW 11:31:38 35° SSE 11:35:50 10° E daylight
16 Apr - 13:08:51 10° WSW 13:13:25 61° S 13:17:59 10° E daylight
16 Apr - 14:50:52 10° W 14:55:21 50° SSW 14:59:49 10° ESE daylight
16 Apr - 16:33:23 10° W 16:36:53 21° SW 16:40:23 10° SSE daylight
17 Apr - 10:12:21 10° SSW 10:15:50 21° SE 10:19:19 10° E daylight
17 Apr - 11:52:54 10° WSW 11:57:22 50° SSE 12:01:51 10° E daylight
17 Apr - 13:34:44 10° W 13:39:18 61° S 13:43:52 10° ESE daylight
17 Apr - 15:16:53 10° W 15:21:06 35° SSW 15:25:19 10° SE daylight
17 Apr - 17:00:40 10° WSW 17:02:20 12° SW 17:03:59 10° SSW daylight
18 Apr - 08:59:08 10° SSE 09:00:15 11° SE 09:01:22 10° ESE daylight
18 Apr - 10:37:16 10° SW 10:41:27 34° SSE 10:45:37 10° E daylight
18 Apr - 12:18:39 10° WSW 12:23:13 60° S 12:27:47 10° E daylight
18 Apr - 14:00:40 10° W 14:05:09 51° SSW 14:09:39 10° ESE daylight
18 Apr - 15:43:07 10° W 15:46:43 23° SSW 15:50:19 10° SSE daylight
19 Apr - 09:22:18 10° SSW 09:25:41 20° SE 09:29:03 10° E daylight
19 Apr - 11:02:43 10° WSW 11:07:11 48° SSE 11:11:39 10° E daylight
19 Apr - 12:44:31 10° W 12:49:07 62° S 12:53:40 10° ESE daylight
19 Apr - 14:26:40 10° W 14:30:56 37° SSW 14:35:11 10° SE daylight
19 Apr - 16:10:12 10° WSW 16:12:11 13° SW 16:14:12 10° SSW daylight
20 Apr - 09:47:08 10° SW 09:51:16 32° SSE 09:55:24 10° E daylight
20 Apr - 11:28:27 10° WSW 11:33:01 60° S 11:37:35 10° E daylight
20 Apr - 13:10:27 10° W 13:14:58 53° SSW 13:19:28 10° ESE daylight
20 Apr - 14:52:53 10° W 14:56:34 24° SSW 15:00:15 10° SSE daylight
21 Apr - 08:32:15 10° S 08:35:31 19° SE 08:38:47 10° E daylight
21 Apr - 10:12:32 10° SW 10:17:00 47° SSE 10:21:26 10° E daylight
21 Apr - 11:54:20 10° W 11:58:55 62° S 12:03:28 10° ESE daylight
21 Apr - 13:36:27 10° W 13:40:45 39° SSW 13:45:02 10° SE daylight
21 Apr - 15:19:46 10° WSW 15:22:03 14° SW 15:24:19 10° S daylight
22 Apr - 08:56:59 10° SW 09:01:05 31° SSE 09:05:10 10° E daylight
22 Apr - 10:38:15 10° WSW 10:42:50 59° S 10:47:23 10° E daylight
22 Apr - 12:20:15 10° W 12:24:46 54° SSW 12:29:17 10° ESE daylight
22 Apr - 14:02:37 10° W 14:06:24 25° SSW 14:10:10 10° SSE daylight
23 Apr - 07:42:13 10° S 07:45:21 18° SE 07:48:29 10° E daylight
23 Apr - 09:22:21 10° SW 09:26:48 45° SSE 09:31:14 10° E daylight
23 Apr - 11:04:07 10° W 11:08:42 62° S 11:13:16 10° ESE daylight
23 Apr - 12:46:13 10° W 12:50:33 40° SSW 12:54:53 10° SE daylight
23 Apr - 14:29:22 10° WSW 14:31:54 15° SW 14:34:24 10° S daylight
